GFSSW_sfc_rhum_000.txt.gz
RH
80 80 81 81 81 82 82 83 83 83 84 86 85 88 84 89 90 76 33 22 26 75 62 18 21 20 24 23 27 38 59 53 45 38 36 26 36 38 37 56 45 43 57 62 58
80 80 80 80 80 81 83 83 83 83 84 86 86 89 89 92 76 42 36 54 60 76 18 15 10 13 18 19 19 30 47 39 32 34 32 26 28 33 46 50 52 56 51 56 57
79 80 81 81 80 80 82 83 83 83 84 87 87 89 92 90 50 23 67 51 68 61 13 12 10 12 16 15 17 26 28 26 27 28 28 36 36 40 48 58 54 57 55 60 63
79 80 82 81 81 82 82 82 83 85 85 86 87 90 90 78 12 13 71 79 75 25 16 12 13 19 19 18 13 28 20 23 29 31 28 32 35 32 46 50 44 45 52 57 63
80 83 84 84 83 83 83 85 85 86 86 86 86 87 81 48 25 17 72 74 34 16 14 12 17 21 20 16 12 19 22 23 24 27 30 31 33 40 45 43 40 40 46 54 60
84 86 87 87 85 85 85 87 88 85 84 85 86 85 67 25 11 14 25 26 16 12 10 11 13 15 14 12 13 18 23 25 26 31 32 31 32 33 47 43 43 43 50 48 52
84 86 86 86 84 83 87 88 86 83 83 84 85 72 60 16 11 16 18 18 12 10 10 10 10 14 13 11 11 17 24 22 27 30 34 33 42 41 42 44 47 47 47 48 49
84 86 86 86 86 87 88 90 88 83 82 84 85 83 39 21 24 17 15 13 10 11 9 8 12 13 11 10 11 16 18 27 26 29 32 40 59 41 41 46 49 47 46 47 49
84 84 85 86 87 88 90 90 83 80 82 86 93 82 43 32 23 17 14 11 11 9 7 5 10 10 12 17 18 21 23 28 27 26 33 42 55 39 37 42 46 46 45 46 49
84 83 84 86 87 89 90 87 78 90 86 70 53 52 29 21 17 13 14 10 8 8 7 7 10 20 22 20 23 23 28 23 26 23 32 43 50 41 39 41 42 43 42 44 46
83 83 85 86 88 88 89 74 28 42 69 41 30 26 18 16 14 11 10 11 8 8 10 10 15 19 20 17 15 18 25 25 22 19 42 43 47 43 41 42 44 47 49 48 48
82 84 86 87 88 88 89 47 19 33 32 24 29 28 19 18 22 15 10 14 9 10 12 13 18 16 16 17 15 15 20 26 24 19 27 46 47 41 41 43 44 47 50 49 56
83 86 88 90 88 90 60 34 25 26 36 21 17 17 16 16 19 16 10 13 10 11 13 15 14 14 16 17 18 17 25 24 22 21 29 41 54 50 43 39 38 42 45 44 57
85 87 89 89 48 65 31 18 26 22 36 26 22 17 16 16 17 12 9 11 8 9 12 13 10 13 17 17 16 18 13 16 23 23 39 34 61 55 41 40 39 42 45 46 53
87 88 89 88 96 80 21 31 23 26 52 19 19 13 15 17 15 10 7 8 10 9 11 12 12 13 15 14 12 12 10 11 24 24 34 41 53 42 46 46 42 41 41 42 47
88 88 89 82 93 78 52 45 29 35 48 25 12 16 14 15 13 10 7 7 8 10 12 10 11 12 12 10 10 9 11 15 22 29 39 35 37 51 52 36 31 36 39 37 44
87 88 90 68 64 40 42 26 38 45 23 19 15 15 13 15 14 13 8 9 10 16 16 14 10 10 10 12 11 12 16 21 23 26 25 23 38 31 40 29 28 32 38 36 42
88 90 92 77 83 67 49 26 51 29 22 17 16 14 17 15 14 13 12 10 11 13 16 16 15 11 9 10 10 13 15 25 27 34 25 23 23 15 34 28 27 26 32 34 41
90 96 74 76 63 57 34 35 33 32 22 18 17 18 19 14 16 15 15 10 9 11 12 20 18 11 9 8 9 12 20 18 25 51 32 28 23 26 30 31 27 27 32 34 39
94 98 78 40 51 44 38 33 27 20 16 16 26 21 21 18 16 17 16 11 9 9 10 13 16 11 8 9 10 9 13 20 27 28 32 29 30 33 46 38 35 32 32 33 36
97 73 43 43 38 40 33 31 17 12 11 17 19 18 16 16 14 16 13 10 8 8 10 9 18 11 15 13 12 18 20 22 22 30 29 31 31 32 37 39 41 36 30 35 38
98 58 30 35 47 51 43 23 25 11 11 12 14 14 16 15 14 15 12 9 8 7 10 11 16 13 11 11 10 15 17 22 24 25 32 32 32 28 30 33 33 33 35 38 33
100 88 37 32 54 51 40 26 18 14 12 13 13 12 12 14 20 17 17 12 9 8 8 10 17 17 17 16 16 14 17 24 26 32 31 33 33 28 28 34 28 30 30 34 39
100 88 53 42 40 51 46 38 29 21 19 16 15 12 14 16 18 20 18 12 12 7 24 20 18 14 15 20 16 16 15 19 21 29 31 30 27 32 31 31 33 32 34 40 46
99 88 55 57 49 40 51 41 35 32 25 25 20 26 30 27 23 26 29 27 20 22 18 10 16 23 16 11 15 11 12 18 19 19 20 19 25 30 35 35 33 31 34 36 38
97 74 68 62 50 48 45 46 29 24 28 28 37 31 32 37 33 37 36 39 35 24 17 20 19 20 13 14 10 10 12 14 15 18 25 22 28 30 29 32 35 29 31 34 41
84 75 85 70 59 52 48 41 28 23 34 40 42 35 39 28 24 28 31 31 29 31 26 22 25 27 21 18 17 19 21 14 17 22 16 22 19 28 36 32 32 30 28 29 31

GFSSW_sfc_rhum_003.txt.gz
RH
79 79 80 81 80 80 82 82 83 82 83 85 86 85 89 93 91 73 32 23 27 70 56 37 46 33 29 25 28 39 48 46 48 44 42 44 53 53 52 62 49 51 68 65 70
79 79 80 80 80 80 81 82 82 82 84 85 86 87 90 93 85 54 39 59 66 71 20 18 14 15 20 25 29 39 50 41 36 34 39 38 48 47 59 59 63 64 62 64 69
79 80 80 81 80 81 81 82 82 82 84 85 86 87 92 94 50 20 55 61 65 64 16 14 11 11 19 18 20 34 40 31 29 30 26 36 40 46 60 65 64 75 74 69 71
79 80 81 81 81 81 82 82 83 83 85 85 86 86 92 87 15 12 69 80 68 45 16 12 12 16 23 20 17 22 25 27 28 33 29 34 39 53 57 60 52 64 66 69 73
80 81 82 82 82 82 82 84 85 85 85 84 85 86 82 41 22 23 66 74 56 24 15 11 15 20 22 18 16 18 27 24 27 30 31 30 42 49 52 50 51 61 66 70 72
83 85 85 86 83 81 84 88 88 86 84 84 84 86 69 26 12 18 31 50 31 18 15 12 11 16 20 15 16 23 26 26 27 31 35 44 50 54 53 49 53 63 70 70 72
83 84 85 85 84 81 84 88 86 84 84 84 83 79 62 20 14 16 27 30 18 17 11 11 12 15 17 16 12 23 29 27 32 36 37 37 48 64 52 49 59 64 64 67 67
84 84 84 84 84 86 88 89 87 83 83 84 84 87 37 20 28 24 16 13 13 14 11 9 12 14 14 13 19 28 29 37 32 35 35 44 65 60 51 51 56 55 58 62 65
84 84 83 85 86 87 89 90 83 84 84 84 94 83 41 30 30 26 14 13 12 12 12 6 10 12 13 18 23 22 36 38 35 32 38 49 62 58 52 53 56 54 54 55 59
84 84 84 85 87 89 90 87 80 88 87 75 62 58 26 17 21 17 18 12 11 9 9 7 12 15 23 22 27 31 31 38 38 33 37 52 55 57 54 56 57 55 54 54 56
85 85 86 87 88 90 89 71 27 37 78 41 31 29 20 19 18 17 14 12 9 9 10 10 13 19 15 18 17 18 25 34 31 30 44 50 54 55 53 54 57 58 57 56 55
86 87 87 89 90 90 93 32 25 38 35 23 24 23 22 22 22 15 12 14 11 10 10 13 16 13 14 18 16 15 15 24 28 32 43 54 56 46 47 50 50 51 52 52 52
87 88 89 90 89 86 55 31 28 31 40 24 20 23 22 23 23 21 14 15 13 11 12 13 12 13 16 19 20 21 22 21 27 32 45 50 63 56 49 46 44 44 45 47 51
88 88 89 85 49 84 49 30 35 30 39 28 24 18 18 18 22 14 13 13 12 14 13 13 10 13 19 19 19 35 16 16 24 31 49 46 70 60 52 51 50 49 50 49 54
88 89 85 86 95 86 25 44 35 30 51 20 22 16 20 16 17 14 11 12 15 9 12 12 12 14 18 19 16 18 15 15 23 27 47 51 57 59 54 62 52 48 47 48 54
88 89 84 88 91 86 64 57 34 32 44 26 19 20 22 19 16 12 11 10 11 10 13 9 11 12 13 12 13 15 14 18 31 39 49 50 45 52 57 50 46 42 44 48 51
89 89 89 72 67 57 47 30 34 40 22 20 20 18 18 22 14 15 12 12 14 17 18 16 11 12 13 15 15 14 17 25 38 47 51 39 46 39 43 37 38 40 40 46 47
88 92 92 83 85 72 40 28 55 26 27 20 17 16 20 18 18 17 13 15 13 16 16 19 16 13 11 14 16 16 17 25 25 37 33 36 51 34 27 32 32 33 34 41 44
90 97 95 83 79 68 34 37 36 34 25 22 19 23 22 18 17 18 18 11 10 13 16 21 18 12 11 10 12 16 19 15 22 54 35 33 26 19 35 34 32 31 31 41 41
94 99 89 61 61 45 37 36 26 24 18 18 29 25 28 22 19 19 23 15 9 11 11 15 19 14 10 11 12 11 15 21 29 31 39 31 29 27 30 44 40 36 32 37 40
97 69 31 68 48 38 30 30 17 13 9 17 26 23 22 21 19 24 18 14 12 10 11 15 16 14 13 15 14 22 22 25 24 32 31 32 30 31 26 45 43 37 31 34 43
98 36 34 47 55 54 40 30 25 13 13 14 16 18 18 19 19 19 17 14 12 10 13 13 17 15 13 14 13 13 16 17 18 28 38 32 27 23 30 44 39 36 33 40 42
88 98 61 35 56 54 48 34 30 28 24 18 15 16 17 18 20 17 16 12 14 11 11 14 18 20 18 18 20 17 21 26 27 35 40 32 30 29 39 42 46 45 44 41 40
89 91 61 50 52 50 46 37 35 28 29 27 23 21 21 27 24 23 20 16 15 10 28 20 21 12 14 16 18 18 20 23 22 30 32 30 24 33 33 36 42 45 45 44 39
88 95 69 63 52 50 48 43 37 37 27 29 36 24 34 42 34 29 25 28 32 36 29 11 15 18 10 11 16 15 16 22 20 20 20 22 25 28 32 33 36 35 39 42 45
100 98 89 86 61 46 54 42 40 32 31 37 35 35 39 41 36 35 32 36 48 33 30 16 16 22 18 13 12 12 13 18 16 22 22 22 26 25 25 40 39 33 34 39 49
93 90 96 87 61 61 52 44 38 35 31 28 46 48 45 35 33 30 29 32 46 57 42 26 17 26 15 19 17 22 17 18 21 27 20 24 21 29 39 36 35 35 33 37 43

GFSSW_sfc_rhum_006.txt.gz
RH
79 79 80 81 80 80 81 82 82 82 82 83 85 87 86 88 90 76 30 25 32 73 74 74 58 50 57 42 34 40 43 50 50 47 47 52 67 56 57 67 59 60 71 72 76
79 79 80 80 80 80 81 82 81 81 82 83 85 87 85 87 90 56 39 60 69 73 23 38 33 32 36 29 34 41 49 41 37 38 50 49 59 59 66 65 70 74 74 77 79
79 79 80 80 80 80 81 81 81 82 83 84 85 86 85 93 43 15 52 60 70 56 16 17 12 16 19 21 27 40 37 35 34 33 41 47 55 52 63 73 71 82 86 83 84
78 80 80 80 80 80 80 80 81 82 84 84 84 85 89 90 20 16 70 77 73 43 17 14 12 16 21 21 17 31 29 32 31 36 42 47 49 61 58 62 56 67 75 82 87
79 80 81 80 80 80 81 82 84 84 84 83 83 83 88 42 24 15 56 76 66 38 18 14 14 18 22 21 19 19 22 30 32 32 36 41 50 60 54 58 60 66 74 79 82
79 82 84 83 81 81 84 86 87 84 83 83 81 82 76 30 15 18 38 57 40 23 17 12 14 18 20 19 17 18 30 33 35 38 41 49 56 56 58 62 69 70 75 76 76
80 80 82 83 80 80 85 88 85 85 84 82 79 81 72 22 15 25 29 38 28 17 17 14 13 16 17 21 15 28 34 32 37 40 50 41 56 58 58 63 74 74 75 74 74
84 82 81 80 81 85 88 89 86 83 86 82 82 90 40 23 27 32 24 18 18 17 13 11 13 14 16 17 25 32 36 42 36 39 45 42 59 67 58 64 76 75 74 75 76
85 86 86 86 86 88 90 89 84 84 84 82 91 81 44 32 27 27 19 16 14 15 13 7 13 15 16 22 37 33 45 44 43 38 42 51 65 64 57 66 75 76 74 74 77
85 86 87 88 88 90 89 89 82 86 85 76 65 62 32 20 22 20 21 12 13 12 12 12 14 21 24 35 49 40 42 44 47 37 44 55 64 65 59 62 68 68 67 71 71
86 87 87 88 88 89 90 70 32 37 70 36 34 34 23 18 20 21 16 14 9 10 12 11 15 19 21 20 28 28 38 34 39 36 47 57 64 69 61 60 63 62 64 65 64
87 87 88 88 88 89 93 30 36 39 27 24 23 22 19 24 22 17 14 18 17 14 15 18 16 14 15 19 21 29 31 35 33 36 43 62 62 65 63 61 60 61 61 61 59
86 87 88 85 88 79 67 34 35 43 36 23 24 22 22 22 22 20 17 17 16 17 13 16 14 13 18 22 19 25 20 24 28 43 51 54 67 68 64 60 58 56 56 56 58
86 87 84 86 48 92 53 44 43 37 41 29 26 20 25 26 28 16 16 15 13 16 12 12 10 13 19 22 22 27 19 18 32 42 52 48 58 72 58 63 56 54 55 55 55
84 87 82 83 95 86 33 65 47 36 41 20 22 17 23 20 18 20 15 16 19 14 14 15 13 15 22 18 18 18 19 21 34 43 54 66 53 51 59 67 56 50 49 49 49
84 86 84 89 93 86 71 71 40 32 42 23 24 21 25 24 17 16 16 15 16 14 15 14 12 13 12 16 16 15 15 24 38 47 57 49 48 49 75 54 47 47 47 48 49
84 87 88 73 68 71 58 30 33 41 22 21 24 21 21 22 20 18 17 17 21 24 24 18 11 14 14 16 20 17 23 31 37 54 52 52 60 36 42 44 39 43 46 47 47
84 90 91 83 92 80 41 24 52 27 25 24 21 21 20 21 20 18 17 23 20 18 24 19 15 13 13 15 18 20 21 30 31 40 44 53 61 42 28 30 39 40 40 43 47
88 96 96 86 82 74 29 30 30 36 26 27 21 27 27 20 18 21 21 19 18 15 17 22 19 14 13 13 12 20 22 20 28 42 35 42 32 24 26 30 41 40 45 44 48
95 95 88 76 72 48 34 31 23 25 21 17 29 26 28 25 21 21 24 18 13 13 14 17 21 14 11 15 16 15 17 21 30 35 46 36 35 32 31 31 37 46 44 43 45
97 53 28 78 54 43 31 26 18 16 15 14 25 30 29 25 22 25 20 17 14 14 14 17 19 16 15 14 13 21 23 27 27 32 32 33 34 30 26 30 33 42 38 40 43
93 30 36 51 55 60 44 28 29 16 16 17 22 20 20 20 21 22 21 16 14 14 16 15 16 18 16 15 14 13 17 20 20 29 39 33 26 22 26 30 42 39 38 42 46
97 92 68 48 67 62 53 39 32 33 30 31 24 18 18 23 30 22 19 14 13 16 19 18 20 18 18 16 23 18 23 25 28 33 40 30 27 27 37 40 50 48 47 49 56
88 85 72 56 62 57 45 35 35 28 31 28 29 28 29 32 29 26 27 22 22 23 50 32 20 15 16 14 16 22 21 25 21 32 33 33 23 24 34 42 49 53 50 50 53
82 95 90 90 66 78 57 43 39 38 31 32 38 37 37 43 40 33 24 23 29 48 35 18 18 17 12 14 18 17 19 25 24 23 23 20 26 23 32 38 42 48 55 55 53
95 97 96 99 88 61 69 50 45 39 38 33 41 35 38 42 38 36 36 38 41 52 41 27 20 22 14 12 15 14 16 23 22 26 23 26 26 23 33 43 44 47 52 53 52
95 88 95 86 92 74 58 58 49 46 37 30 33 45 54 47 40 39 37 35 57 48 69 44 25 29 19 19 18 22 12 16 22 25 21 26 22 27 38 38 39 43 46 44 46

GFSSW_sfc_rhum_009.txt.gz
RH
79 80 80 80 80 80 80 81 81 81 81 82 84 86 88 87 86 61 24 19 29 86 71 54 39 47 50 40 36 29 27 30 31 38 35 39 42 47 43 54 50 49 50 45 57
78 79 80 80 79 79 80 80 80 80 80 83 84 85 86 85 70 35 32 57 70 81 42 32 32 36 28 20 24 26 30 27 24 27 33 38 39 48 52 51 51 59 55 57 62
78 79 79 80 80 79 80 80 79 80 81 83 84 84 87 80 34 11 62 64 72 62 27 20 22 16 14 16 20 26 25 24 24 24 30 36 42 42 49 52 47 58 65 62 63
78 79 80 80 80 80 80 79 80 81 83 83 83 84 86 68 14 9 68 64 71 38 16 13 14 13 12 11 13 21 21 21 22 27 31 36 35 43 45 37 37 50 57 61 63
78 79 80 80 80 80 80 81 82 83 84 83 82 82 65 23 16 12 57 70 47 28 11 11 11 10 10 13 13 16 14 18 21 28 29 34 40 39 45 38 41 52 58 60 59
78 81 82 82 82 81 83 86 86 84 83 83 81 79 44 18 10 19 41 46 41 23 14 11 9 9 9 14 14 12 17 22 24 30 32 34 41 38 39 48 53 58 58 56 58
79 80 83 83 81 81 85 88 85 84 83 84 80 73 42 15 12 17 21 25 31 20 14 10 9 10 12 13 11 23 26 28 28 29 35 34 48 43 41 50 57 56 57 57 58
81 82 82 82 83 85 89 89 86 84 84 83 80 71 29 19 18 22 20 15 18 14 10 10 9 8 9 12 21 23 24 27 30 30 36 28 32 39 45 51 55 54 56 59 57
82 83 85 87 88 88 89 88 84 82 83 81 73 56 28 30 21 18 18 11 13 15 13 8 10 9 10 14 23 25 24 28 33 27 36 31 30 38 45 47 52 54 53 54 57
84 85 86 87 88 89 88 87 79 83 77 70 62 50 27 17 15 15 17 10 10 12 11 9 9 8 13 15 18 25 27 27 29 31 33 34 34 47 48 46 50 54 53 55 55
84 85 86 87 86 86 80 40 29 28 48 26 22 26 20 15 14 16 13 12 8 12 12 11 9 9 10 15 15 18 24 24 28 28 31 34 33 47 49 48 49 54 56 55 52
84 85 86 85 86 87 62 15 27 23 18 12 15 16 14 14 14 13 12 15 12 14 10 11 10 9 9 11 17 23 23 24 26 28 28 36 34 39 48 49 46 49 52 52 50
85 84 85 83 86 60 49 25 28 24 17 14 15 15 15 15 16 12 12 14 15 17 10 10 8 9 13 13 14 21 23 25 24 28 33 33 31 43 47 45 46 44 42 43 47
84 84 84 82 48 58 29 33 35 30 22 18 17 16 20 18 20 12 10 13 13 16 13 10 7 9 12 14 12 15 19 21 25 27 30 28 31 35 38 50 48 44 44 42 44
82 82 84 82 72 51 25 40 32 28 25 15 16 14 19 19 12 17 12 14 16 15 13 13 9 11 11 12 14 14 16 18 22 24 31 38 32 23 42 45 45 43 41 40 39
82 82 84 75 74 55 46 44 30 24 28 17 18 16 19 17 14 16 15 12 13 14 12 12 9 7 9 11 14 14 16 20 27 23 28 22 30 20 41 39 33 35 38 39 38
82 83 84 64 42 46 40 19 21 27 17 15 16 14 13 17 17 14 15 17 18 24 23 16 12 8 8 11 14 13 15 22 26 29 23 25 36 24 21 28 27 28 35 36 36
81 87 82 71 64 52 32 13 28 18 15 15 16 15 13 15 16 13 16 16 17 17 18 22 18 12 8 8 14 15 13 18 30 25 20 35 33 21 21 18 25 26 28 31 33
85 69 70 58 67 58 20 11 14 19 18 18 16 15 13 14 15 15 16 14 15 15 20 19 18 9 8 10 11 16 18 10 16 21 18 19 28 20 19 21 23 25 28 32 33
78 76 53 54 62 42 16 15 10 18 18 12 17 17 18 17 14 14 16 14 15 14 13 16 18 8 8 8 11 12 11 15 17 29 29 20 24 15 21 20 22 28 28 30 34
79 41 45 62 48 32 17 12 10 10 17 12 14 17 19 15 15 15 14 13 12 13 14 13 13 11 11 10 9 12 13 17 13 16 21 21 17 19 22 25 20 24 26 28 34
78 23 40 48 43 32 26 21 29 11 8 9 13 15 15 14 13 14 14 14 11 11 13 13 14 18 12 9 9 8 12 14 15 28 19 17 14 13 18 17 18 18 22 26 37
72 68 42 41 37 36 38 32 26 19 16 16 12 13 13 14 18 16 14 11 11 11 16 16 17 20 17 12 11 12 10 11 12 15 27 18 15 16 20 23 22 26 27 35 39
75 60 46 43 44 44 50 36 30 23 23 21 18 18 24 26 24 24 19 14 16 11 49 30 22 24 20 19 12 13 12 12 12 14 16 17 14 15 17 25 24 28 34 36 41
69 67 80 70 52 65 51 37 32 30 24 26 30 25 27 31 26 26 23 20 16 28 31 26 31 25 19 16 12 11 9 11 16 15 16 14 18 15 21 22 24 25 34 40 42
79 83 75 80 73 68 55 39 38 39 38 26 31 22 23 35 31 28 24 23 28 30 31 23 33 24 21 17 13 12 11 10 12 11 15 11 17 14 17 21 27 29 38 40 41
69 63 77 62 62 60 50 45 41 43 34 33 32 34 33 30 31 31 28 28 32 40 48 45 35 36 30 15 15 18 13 12 12 12 14 16 15 16 19 25 26 27 36 39 38

GFSSW_sfc_rhum_015.txt.gz
RH
77 78 79 79 79 79 80 80 80 81 80 82 83 86 87 89 84 43 17 20 22 86 82 21 19 16 16 15 14 13 30 18 15 20 15 13 15 16 17 23 21 22 26 30 32
77 77 78 79 79 79 80 80 80 79 81 83 84 84 87 89 28 11 28 64 78 80 23 16 16 13 16 14 14 13 71 24 11 13 15 14 13 16 19 23 24 26 24 29 32
76 78 79 79 79 80 80 80 81 80 81 83 83 84 87 71 18 7 62 72 82 65 10 11 10 12 14 11 10 10 30 21 11 11 14 14 14 14 18 22 23 28 29 31 32
77 78 78 79 79 80 80 80 83 82 83 82 82 83 84 31 12 11 64 68 80 25 14 10 10 12 14 11 7 10 10 9 9 11 12 14 13 14 15 16 17 22 26 30 32
77 78 78 78 78 79 80 82 84 84 82 81 81 82 50 16 10 18 68 62 30 18 14 10 10 10 12 7 7 8 9 8 8 10 11 12 15 15 14 15 16 21 26 29 30
78 79 81 81 80 79 81 85 86 83 82 82 80 83 33 13 4 11 9 17 14 15 10 8 8 7 8 8 7 8 8 8 8 9 11 14 14 16 15 16 19 24 26 26 27
79 80 82 81 77 78 82 85 82 82 83 83 81 54 18 11 4 5 10 9 9 10 10 6 6 5 6 7 6 7 10 10 9 10 12 12 16 18 15 18 22 24 26 25 25
78 80 81 81 79 80 82 85 82 83 84 81 80 39 17 6 6 6 6 6 7 8 8 5 4 5 6 6 7 8 9 12 10 11 13 14 21 16 15 18 21 23 25 26 26
82 82 82 83 82 82 83 83 82 82 79 80 48 28 15 22 10 7 6 8 7 7 8 6 6 6 6 7 9 10 11 11 12 11 14 16 52 16 16 17 19 22 23 25 26
82 83 83 82 82 82 82 86 63 81 65 39 28 26 14 10 8 8 7 7 7 8 9 9 7 7 6 8 12 13 12 10 16 12 14 16 23 16 18 17 18 20 21 24 24
83 83 83 82 82 80 59 15 24 36 30 17 14 11 9 7 8 8 8 8 7 9 9 7 7 7 8 8 8 9 10 10 10 10 14 16 16 17 19 18 18 20 21 22 23
83 83 83 81 80 80 52 11 13 10 11 7 6 7 7 6 8 8 8 8 8 10 8 7 7 5 6 7 8 9 10 10 10 11 13 15 16 15 19 20 19 20 20 21 21
83 83 83 82 76 51 10 12 9 8 11 7 5 6 5 5 7 7 7 9 7 9 7 6 5 4 6 8 9 9 10 10 10 14 13 14 19 16 14 18 19 18 18 19 20
83 83 82 81 42 14 12 11 8 8 14 7 7 6 5 5 7 5 5 8 8 8 7 6 4 4 5 7 7 10 8 8 9 17 20 12 18 18 14 15 18 19 18 19 19
84 83 82 81 35 18 10 8 7 11 16 7 7 6 7 8 8 8 6 7 10 8 7 8 5 5 6 6 6 9 7 9 9 12 20 13 15 15 13 15 15 16 18 18 18
84 81 80 30 26 19 12 10 10 17 18 8 8 10 11 9 8 8 8 6 7 9 8 7 5 4 4 4 6 6 8 9 9 10 17 16 16 17 17 14 13 12 15 18 18
83 82 69 36 17 11 10 10 12 15 8 8 8 8 9 9 8 9 9 9 10 14 13 9 7 5 4 5 5 7 8 14 16 15 15 12 14 21 12 11 11 10 12 15 18
85 77 46 23 19 17 17 12 19 10 9 6 6 7 8 6 8 8 10 9 8 9 9 12 11 7 5 5 6 7 8 12 24 16 14 12 16 12 10 9 8 8 8 10 15
82 23 17 13 18 18 18 13 13 11 7 6 7 8 9 7 6 8 10 9 8 8 12 11 12 6 6 5 4 6 8 6 10 11 13 12 11 10 10 10 9 9 8 8 14
50 33 16 12 20 23 21 21 10 7 5 6 9 8 10 9 8 8 9 8 7 7 7 10 13 8 6 5 5 5 4 8 10 23 23 13 14 13 14 13 11 10 9 9 12
46 20 19 18 23 30 25 16 12 7 6 7 8 9 8 8 8 9 8 7 7 6 7 8 11 11 8 8 8 6 6 7 8 11 16 17 14 10 14 13 12 10 8 8 10
31 27 16 19 27 22 22 19 21 9 6 6 6 8 10 7 8 8 9 7 5 6 8 8 10 15 10 7 6 6 6 6 11 21 13 13 11 8 8 9 9 9 8 8 9
37 27 14 12 23 16 16 15 12 11 10 8 7 6 8 9 13 9 9 6 7 8 10 9 13 16 15 8 7 8 6 6 6 10 21 16 13 8 8 9 9 9 9 9 10
44 31 16 18 18 17 17 18 18 13 12 11 10 7 7 9 9 12 10 7 6 7 48 20 12 17 15 16 8 10 7 6 6 9 13 12 13 11 10 10 10 10 10 9 10
45 32 23 31 24 31 40 40 36 44 26 16 16 11 10 11 10 10 9 9 7 18 12 11 19 15 12 11 9 7 6 6 7 9 12 11 12 11 11 11 10 9 9 10 9
63 43 35 34 33 34 38 32 23 22 30 34 30 16 13 14 11 11 9 12 12 9 12 10 19 17 16 10 10 10 8 7 7 6 7 8 9 7 8 10 10 9 10 10 10
53 54 52 46 32 28 26 36 30 24 28 33 40 52 38 22 22 20 16 8 9 14 15 16 17 21 23 15 14 16 11 10 9 8 8 10 9 8 9 11 10 10 10 11 10

GFSSW_sfc_rhum_021.txt.gz
RH
77 78 78 77 76 75 75 76 78 78 78 80 82 86 88 89 88 49 35 23 32 75 79 30 31 28 28 50 62 55 72 67 41 36 19 21 29 25 27 39 42 37 51 53 46
77 78 78 78 76 75 75 75 76 75 77 80 82 83 87 88 63 26 25 47 52 73 22 15 20 26 29 30 52 59 65 35 26 30 21 21 29 30 28 39 45 43 44 47 47
75 75 76 76 75 75 76 76 76 76 77 79 81 82 86 84 45 13 67 44 48 62 15 10 10 13 22 20 22 35 40 28 27 21 20 17 18 20 25 45 41 44 50 48 47
75 75 76 76 77 77 77 77 78 78 78 79 80 82 86 70 18 12 71 72 77 43 16 11 10 14 16 19 14 28 21 18 16 21 19 18 17 22 23 32 32 34 34 47 48
76 79 80 79 79 79 79 81 83 82 78 79 78 81 74 43 24 13 68 71 42 26 18 14 12 14 17 16 14 18 18 16 14 17 21 16 18 21 24 31 32 33 34 42 49
79 81 82 83 82 82 82 83 82 81 78 78 78 81 78 28 8 7 30 36 21 19 15 13 13 12 15 15 15 14 13 10 14 17 20 20 18 20 25 31 35 36 38 37 36
82 82 82 83 81 81 83 83 82 77 76 77 79 69 47 19 8 14 17 22 18 14 15 12 12 14 13 15 12 11 14 10 11 12 19 24 37 20 23 28 36 38 38 37 37
83 82 82 83 83 83 83 83 81 77 75 76 80 64 51 11 11 10 8 9 11 11 12 11 10 12 13 12 12 12 13 16 11 11 15 32 51 24 20 29 35 35 36 37 38
83 83 82 82 82 82 82 82 79 73 74 79 84 73 41 20 15 9 8 9 11 11 12 8 11 12 10 14 18 14 17 15 12 11 14 26 40 19 18 27 30 34 34 35 37
83 82 82 82 81 81 82 76 66 72 77 58 44 57 36 18 10 10 8 8 9 10 9 12 15 16 13 15 21 18 16 13 13 14 24 30 32 23 23 26 28 31 31 33 35
82 82 82 82 82 82 74 57 33 49 49 44 36 26 13 11 9 10 8 9 8 9 14 13 18 18 14 10 11 12 12 13 11 14 34 33 29 27 23 30 31 30 31 32 33
83 83 83 83 83 77 76 48 17 14 17 10 11 17 18 17 18 10 8 10 10 12 13 14 16 14 11 10 9 11 12 13 11 14 29 39 35 31 26 23 29 26 29 30 31
85 83 84 85 78 64 30 22 13 10 15 10 8 8 8 10 17 12 10 9 11 14 14 14 15 11 10 11 11 11 13 13 14 16 22 38 45 46 25 25 25 22 24 27 29
85 83 84 88 53 41 30 17 13 10 23 13 10 7 7 7 12 11 9 10 13 14 12 13 10 10 11 10 9 14 10 10 11 15 28 29 45 46 28 26 27 23 22 24 26
85 84 84 86 70 54 26 22 18 15 33 10 8 5 6 8 10 12 10 9 14 13 12 12 12 11 10 8 6 10 10 11 11 14 25 22 28 39 33 32 28 23 22 20 22
86 84 83 60 50 42 30 24 19 27 31 12 7 7 8 7 7 6 11 8 9 13 12 10 8 9 10 7 6 6 9 11 12 14 23 24 24 37 32 29 25 22 22 20 20
87 85 81 60 54 22 35 28 28 28 13 12 11 8 7 8 7 7 8 10 11 15 15 14 11 8 7 9 6 6 11 16 20 21 25 22 26 36 24 21 23 22 21 21 21
89 85 66 42 42 47 43 36 38 19 16 11 11 10 11 8 8 7 8 10 8 10 15 17 19 12 8 8 9 7 7 13 27 24 21 19 26 25 18 17 19 19 19 18 19
87 50 44 32 28 36 40 44 28 22 15 16 16 15 12 10 10 8 8 11 9 8 13 15 16 11 9 8 7 10 8 7 14 17 24 18 17 13 19 16 18 20 16 18 18
78 60 50 31 26 31 39 48 31 20 20 22 28 19 20 17 16 13 11 9 9 8 8 14 23 12 10 8 7 7 9 10 8 15 20 16 20 21 21 21 24 24 23 19 19
74 50 26 16 21 30 41 39 30 22 20 23 26 25 22 20 17 16 14 10 8 10 9 10 13 13 12 11 10 10 9 10 10 10 16 23 17 16 22 23 24 20 17 18 17
55 60 23 22 37 31 36 31 35 24 20 22 23 25 27 24 23 19 15 11 8 8 10 10 12 15 13 10 8 8 10 11 13 22 21 14 14 12 11 20 18 17 16 19 21
65 52 32 27 42 36 28 24 20 19 18 18 20 18 19 24 29 22 18 12 8 8 10 10 12 18 16 12 10 9 9 10 8 16 19 28 15 7 8 22 20 23 25 20 24
80 60 35 32 30 31 32 45 50 36 35 29 32 33 34 31 27 30 25 15 10 8 40 31 11 12 16 15 17 18 10 10 10 12 12 11 10 10 21 25 14 19 18 17 23
92 68 43 63 55 51 45 70 50 40 34 38 44 51 58 58 54 45 44 45 34 34 20 18 19 13 11 11 12 11 13 10 11 9 14 12 11 11 14 28 26 20 23 18 22
95 76 61 72 54 53 45 35 29 36 42 48 53 59 60 77 70 76 57 57 57 37 40 32 32 24 17 11 10 10 11 12 9 9 11 11 12 15 16 26 24 24 17 15 19
72 83 96 82 57 54 48 42 48 48 54 49 40 45 55 46 48 54 47 44 47 50 48 39 38 36 27 20 20 16 11 12 14 11 11 13 10 13 14 18 22 26 21 19 20

GFSSW_sfc_rhum_024.txt.gz
RH
75 76 76 76 76 76 76 77 77 77 76 76 79 82 86 89 88 71 40 26 37 85 78 63 54 48 51 70 68 61 66 62 49 40 41 38 46 42 40 52 48 49 56 56 51
76 76 76 76 76 76 77 77 76 76 76 77 79 81 84 89 80 47 28 49 59 75 27 59 48 43 60 60 58 62 73 50 33 30 34 31 41 42 51 56 54 56 52 50 50
76 75 76 77 76 77 77 77 76 77 77 78 80 81 84 87 54 19 66 50 57 64 23 18 24 31 40 60 57 57 57 38 29 25 28 34 40 39 54 61 56 64 59 54 53
76 76 76 76 77 78 78 78 78 79 78 78 79 80 85 86 12 12 73 79 57 38 24 22 14 15 19 29 42 46 36 28 27 23 26 32 38 45 44 44 44 54 54 54 58
76 78 78 79 78 79 79 80 82 80 78 77 77 80 82 56 32 9 64 70 51 36 26 20 16 15 18 17 16 26 22 26 22 21 22 21 25 40 38 38 42 50 53 57 57
82 83 82 82 82 82 82 83 84 82 77 75 75 78 80 18 7 10 13 35 27 26 25 19 16 14 16 17 18 16 16 16 16 20 20 21 23 32 38 37 46 52 56 56 56
82 82 82 82 82 82 82 83 83 79 76 76 74 75 72 14 9 12 16 31 31 23 20 18 14 16 17 18 15 16 17 14 12 16 23 25 34 42 39 37 43 54 53 52 54
83 83 82 82 82 82 83 84 83 78 75 75 75 82 68 20 17 13 11 15 16 22 18 16 15 17 19 15 13 16 19 20 14 24 26 25 40 42 39 40 42 45 53 54 52
82 83 83 82 82 82 83 83 80 72 70 78 93 89 52 32 28 16 12 12 12 17 15 11 15 17 17 17 20 21 22 18 15 18 26 33 49 29 39 42 45 42 41 45 44
84 84 84 83 82 83 83 80 75 75 72 67 57 66 37 19 21 13 12 10 12 15 16 17 19 20 21 21 23 23 20 17 16 17 28 36 39 28 41 44 46 45 42 41 41
84 85 85 84 83 82 80 87 30 35 63 49 50 42 22 18 15 13 10 12 12 16 18 16 23 23 21 18 15 17 17 17 14 14 33 32 32 28 40 42 45 46 45 44 41
85 85 85 84 84 79 89 54 42 22 26 15 19 22 22 21 25 20 12 15 15 16 15 18 19 18 16 15 13 13 15 16 14 13 34 35 28 24 32 36 39 41 42 42 41
85 86 86 86 82 64 51 34 27 27 23 15 11 12 12 18 24 23 16 13 15 15 15 16 16 13 15 16 14 12 13 13 15 14 39 36 42 41 30 28 30 35 35 36 38
85 86 86 86 59 68 50 32 31 29 28 19 13 10 10 10 15 12 15 11 13 14 14 17 13 14 13 16 15 20 11 10 12 19 32 32 47 46 36 33 30 31 33 35 35
86 86 86 86 95 84 38 36 33 24 36 15 12 8 10 10 10 11 11 13 16 15 17 19 16 14 16 15 14 15 12 14 14 17 23 21 44 42 38 36 32 30 30 31 32
88 87 86 80 84 64 46 45 35 25 35 17 10 10 11 11 10 11 14 15 14 16 16 15 12 13 12 12 12 10 11 14 18 18 28 21 30 42 39 34 28 26 26 28 29
89 89 86 66 84 49 55 43 27 36 17 17 20 17 11 11 10 12 16 20 18 23 21 19 15 12 11 15 12 11 14 18 21 21 25 21 36 30 29 28 23 24 26 24 27
88 88 80 56 79 70 58 37 42 23 20 19 22 18 15 12 10 9 11 22 18 16 21 22 23 16 11 12 13 14 10 15 24 29 27 21 34 25 22 24 24 20 23 22 23
88 78 68 60 43 57 62 68 38 28 26 29 26 25 21 18 21 15 10 10 16 14 16 23 19 14 12 11 10 14 12 9 16 39 27 25 22 19 21 21 24 24 23 23 22
96 98 83 51 43 57 71 69 44 30 28 28 38 29 39 32 29 28 24 12 9 8 10 14 22 14 10 13 12 12 11 17 16 16 17 20 24 20 21 25 25 24 23 23 22
99 87 51 32 34 59 73 62 37 28 28 33 36 35 32 34 32 32 29 16 13 11 9 10 15 15 16 14 15 15 13 15 11 12 14 24 14 15 17 22 27 26 22 22 24
96 95 47 35 57 58 60 47 42 31 27 30 27 26 26 32 29 27 30 23 16 17 20 12 11 14 12 13 12 12 13 13 13 18 16 10 11 12 13 15 25 25 21 20 22
100 93 53 48 71 64 55 44 43 44 45 42 40 36 48 48 52 31 36 23 39 35 31 38 19 18 20 16 14 15 12 10 17 18 14 22 15 11 12 16 26 26 22 22 25
99 98 68 59 64 68 67 63 62 44 38 39 44 53 60 63 55 64 55 43 41 38 52 42 38 20 18 16 14 17 12 11 10 12 14 13 15 13 15 18 22 18 24 22 26
98 94 81 95 82 73 60 62 59 55 42 47 56 56 72 85 79 65 62 62 46 44 45 56 56 30 21 15 11 13 14 12 12 10 12 11 14 12 12 12 13 14 24 25 23
98 97 94 82 91 84 65 57 80 82 65 64 62 57 59 78 67 68 64 68 66 53 55 60 58 44 35 20 11 12 12 12 11 10 10 13 14 11 10 16 17 18 20 22 16
92 91 97 88 92 84 73 60 55 59 70 56 48 62 55 46 51 53 49 51 58 62 58 71 62 52 50 23 13 16 13 14 14 13 11 13 13 15 15 18 22 22 29 26 23

GFSSW_sfc_rhum_027.txt.gz
RH
76 77 76 77 77 77 78 78 78 77 77 77 78 81 83 87 88 79 37 26 39 89 86 79 65 60 62 75 70 66 73 72 60 52 50 50 57 47 47 58 50 52 61 60 65
76 76 76 76 76 77 78 78 78 78 78 78 79 80 83 86 88 61 33 53 63 83 74 78 76 67 81 72 69 74 77 52 36 37 49 48 52 50 57 57 61 60 57 60 63
76 75 76 76 76 76 77 78 78 78 78 78 79 80 82 88 55 14 64 53 70 79 50 58 53 58 74 72 66 60 65 44 34 29 40 47 49 46 58 64 65 68 67 63 62
76 76 77 77 77 77 77 77 78 79 79 78 78 79 83 93 12 11 78 76 68 53 30 40 33 56 49 57 57 64 49 44 34 27 30 44 43 52 52 51 51 54 58 60 62
76 77 78 78 77 76 76 78 79 79 79 78 76 77 86 61 22 8 68 63 57 32 25 25 24 38 23 21 40 57 44 32 34 31 26 36 45 49 52 44 49 52 56 59 61
81 82 83 83 83 80 80 82 83 79 78 77 75 76 80 15 8 16 19 44 40 34 29 23 22 18 18 18 21 20 26 22 21 23 25 42 44 47 49 46 54 57 60 58 58
83 83 84 84 84 83 82 82 82 80 78 78 76 77 83 14 9 12 21 29 39 29 30 24 18 15 16 17 16 18 22 20 18 18 29 32 45 49 42 50 60 60 60 59 58
84 83 84 84 84 84 82 82 83 79 79 76 76 83 54 24 22 15 12 13 26 27 19 21 18 19 23 18 17 18 21 23 18 27 24 27 42 42 43 53 63 61 60 61 60
85 84 84 85 85 84 83 83 80 76 76 78 87 89 42 34 36 24 14 12 20 26 24 15 19 22 22 24 24 23 26 22 17 25 30 29 48 48 44 54 61 62 61 60 62
86 85 85 85 85 85 82 83 77 80 78 69 62 72 40 18 28 18 16 12 16 18 21 21 23 26 26 24 29 26 23 20 19 19 33 41 48 49 47 51 60 60 60 60 61
86 86 86 85 85 81 87 79 36 38 68 50 56 42 26 19 19 17 13 12 14 20 26 24 27 32 26 22 18 20 20 20 18 18 34 35 39 52 48 46 50 59 60 60 59
86 86 86 86 85 84 78 40 37 39 46 24 23 22 21 22 20 17 11 14 18 20 22 24 27 24 20 20 18 18 19 17 18 18 34 37 36 36 48 48 47 48 51 55 56
86 86 86 88 85 68 64 46 37 46 38 20 16 16 15 19 24 19 14 16 19 21 18 24 20 16 19 20 18 20 19 17 17 20 36 40 47 40 48 48 46 46 43 43 45
86 85 85 88 58 83 51 44 42 44 32 21 16 13 14 22 27 14 18 14 17 18 18 18 14 15 18 20 19 26 16 14 15 19 23 37 57 49 47 52 49 48 47 45 44
87 85 84 86 94 91 38 46 47 31 44 19 15 10 13 13 13 18 16 17 16 18 16 18 16 14 18 16 18 19 15 16 17 20 26 26 45 43 41 50 44 42 43 42 42
85 84 84 86 96 76 58 59 40 26 38 18 13 13 14 13 11 15 17 18 14 16 18 15 16 12 15 15 13 16 19 16 22 24 29 18 25 22 46 37 34 32 35 38 38
86 84 86 73 86 66 65 48 30 37 20 22 26 24 23 14 12 15 18 21 22 24 21 18 14 16 14 17 18 18 20 28 26 27 24 18 30 18 28 30 27 27 29 32 34
85 87 84 59 76 82 70 41 44 25 25 28 28 26 22 25 17 17 19 21 20 21 23 28 30 16 14 17 18 20 19 31 29 30 21 24 30 23 18 24 26 23 23 25 30
87 72 96 74 56 71 67 64 41 35 31 34 31 30 33 31 29 28 28 21 21 18 21 28 26 17 14 12 13 19 19 15 20 50 26 27 23 21 20 24 27 29 24 26 27
97 99 94 63 58 68 76 73 52 34 31 33 42 37 42 37 36 35 34 21 18 20 19 20 25 17 15 15 14 13 13 21 22 24 24 21 23 21 26 20 28 32 29 26 26
96 95 59 44 55 75 93 80 47 31 30 37 41 42 39 36 34 34 34 27 32 32 26 23 22 20 16 18 19 22 17 18 16 19 19 23 16 12 18 23 26 30 29 27 27
97 96 48 52 60 72 81 62 49 39 36 38 37 38 43 44 50 35 31 34 38 40 45 38 27 20 17 16 11 14 16 19 21 20 18 13 15 15 14 15 21 22 28 26 25
99 99 70 54 94 74 61 53 47 49 49 45 44 44 56 55 51 55 50 42 43 44 64 59 55 29 21 17 17 18 16 14 16 20 16 17 18 14 13 17 23 22 29 31 27
98 97 85 70 77 79 81 69 68 50 44 46 50 62 66 70 64 64 59 50 42 40 53 54 61 45 31 24 19 18 15 16 14 18 16 15 15 17 14 15 16 22 26 30 32
97 93 92 98 89 96 73 73 82 81 67 56 60 60 72 88 87 75 60 58 45 50 50 64 79 55 43 35 30 22 16 12 17 15 16 14 15 13 14 15 15 14 16 26 28
97 98 87 88 75 91 76 68 80 59 73 72 81 60 66 78 74 71 71 74 67 57 55 69 72 62 50 29 26 24 17 15 12 13 14 13 16 13 10 13 14 11 13 20 31
95 91 98 86 84 83 72 71 66 64 59 78 70 62 64 64 62 62 62 61 60 68 71 72 77 70 69 41 36 31 19 15 14 12 13 15 13 13 13 13 13 13 17 20 21

GFSSW_sfc_rhum_030.txt.gz
RH
74 75 76 76 77 77 78 78 78 79 79 79 79 80 82 85 87 85 36 25 37 77 84 80 75 64 69 78 70 66 78 77 70 60 55 57 61 53 52 62 56 57 69 66 76
75 75 75 76 76 76 77 78 78 78 78 79 80 80 81 84 93 69 36 54 64 88 84 82 83 70 91 84 77 79 81 61 44 41 53 53 56 56 62 61 65 64 65 70 75
75 75 76 76 75 75 76 76 76 76 78 78 79 80 81 88 62 14 55 53 76 85 68 66 68 70 79 80 77 71 77 53 38 44 46 55 56 52 60 66 67 75 76 76 77
76 76 77 77 76 76 77 77 77 77 78 78 79 78 80 93 13 32 77 66 78 67 64 65 71 85 82 79 67 75 57 50 43 33 49 55 51 56 51 56 50 62 67 74 77
78 79 79 78 78 78 77 78 79 79 79 79 78 77 88 64 22 52 75 62 74 50 60 62 74 74 48 51 60 69 45 37 34 39 36 45 51 52 58 47 54 58 68 74 74
83 84 84 84 82 80 81 83 82 79 79 78 77 76 85 14 8 16 53 63 73 46 47 35 44 45 30 28 46 35 45 38 34 28 36 45 50 51 52 51 56 62 69 70 71
83 85 85 84 83 82 83 82 81 80 81 80 76 78 89 11 10 15 56 54 51 35 32 26 22 30 23 22 16 19 22 21 23 24 28 37 56 55 49 54 61 63 65 67 66
84 84 84 84 83 83 82 84 83 81 81 80 77 84 40 23 28 21 18 35 36 37 27 26 21 23 24 21 19 20 25 26 20 22 21 42 52 49 51 59 65 63 62 64 65
85 85 85 85 83 84 82 85 80 77 78 78 88 89 32 34 37 24 13 14 30 38 30 16 22 26 25 24 27 28 30 26 20 19 34 40 46 43 52 60 67 66 64 63 65
85 85 85 84 85 83 83 83 78 82 74 69 68 67 43 22 29 25 18 16 23 28 28 26 28 32 31 29 23 29 27 25 21 23 37 41 45 49 55 60 64 66 65 65 65
85 85 85 84 84 81 86 64 45 44 52 72 64 44 30 22 20 19 16 15 20 26 32 31 37 35 30 24 22 24 24 24 20 19 35 35 46 62 56 57 62 66 67 66 65
85 84 84 83 81 83 70 44 44 46 57 33 32 30 29 25 22 18 13 16 20 27 26 30 32 29 25 23 22 21 24 23 19 16 34 36 35 58 58 58 57 63 64 64 62
85 84 83 85 84 74 76 47 45 57 60 30 27 24 22 24 24 21 14 17 21 23 25 25 27 24 24 25 24 27 24 23 22 19 32 43 45 53 57 56 52 56 57 58 60
85 84 83 86 59 92 50 58 56 56 42 26 20 16 22 23 25 17 13 16 20 21 22 25 19 22 26 26 23 32 20 17 16 20 24 36 44 53 52 59 53 51 56 57 57
87 84 83 85 94 89 40 60 56 41 45 22 18 12 20 19 19 20 20 21 21 21 20 22 19 20 23 22 21 24 16 17 17 20 25 29 40 43 50 67 59 53 50 48 48
88 86 85 89 97 88 71 70 51 39 50 22 17 17 18 16 14 20 21 21 16 19 21 19 17 16 17 16 18 18 19 21 28 28 31 23 31 32 62 47 54 50 49 48 45
88 87 87 77 73 72 82 55 36 46 25 29 32 29 27 22 15 22 23 24 23 26 25 21 17 18 15 19 20 20 26 37 35 32 29 24 28 19 32 39 41 44 44 44 44
86 87 84 67 74 77 79 42 52 30 33 33 32 32 30 32 29 28 24 24 25 24 25 26 28 18 17 17 20 24 25 40 38 36 29 27 27 23 16 31 31 31 33 34 38
90 92 90 73 56 76 66 61 48 43 36 38 36 38 38 34 34 32 33 24 24 22 26 29 26 20 14 17 13 25 24 20 26 51 28 28 25 20 21 22 32 30 28 30 30
98 97 89 65 56 72 82 77 60 40 35 38 49 42 46 39 39 35 35 46 41 33 31 26 33 22 15 15 17 17 18 25 30 36 36 30 28 26 31 23 25 37 32 28 27
97 96 54 54 65 80 87 88 59 43 40 44 46 47 45 48 46 37 35 49 44 45 40 43 26 24 22 22 18 22 20 25 22 29 30 33 24 22 21 26 19 21 31 29 30
97 92 50 55 76 85 79 62 63 57 45 47 44 48 55 51 51 43 53 57 41 47 70 68 39 29 23 19 17 15 18 20 23 27 26 28 20 18 15 20 24 23 27 35 34
99 98 73 63 97 97 75 57 49 66 66 53 50 60 61 62 56 60 54 48 42 49 71 59 57 36 24 19 21 23 20 19 15 26 22 22 21 10 22 18 18 22 26 32 40
98 96 89 73 91 93 96 82 68 55 72 67 58 61 68 72 73 71 66 50 43 47 51 55 70 51 45 43 38 31 21 20 19 20 20 18 19 22 19 20 18 24 30 32 41
97 93 79 98 92 80 92 81 76 81 63 80 80 66 69 86 77 76 62 59 46 53 50 63 67 66 55 46 39 35 31 26 22 19 22 18 18 19 19 21 18 17 31 27 33
97 96 92 89 80 79 71 84 75 63 77 71 97 82 65 84 79 83 72 78 69 62 60 70 66 73 61 40 36 38 31 25 22 20 22 18 20 17 15 20 20 19 22 23 24
95 91 97 90 93 90 87 81 71 72 64 76 84 90 64 66 67 66 66 65 64 78 72 74 77 74 69 50 45 40 25 24 23 20 18 20 20 16 17 19 18 15 17 19 20

GFSSW_sfc_rhum_033.txt.gz
RH
75 75 75 76 75 75 76 76 76 76 77 77 79 80 82 84 84 71 29 18 28 75 72 59 57 57 60 64 58 49 43 46 41 44 39 44 49 45 43 50 46 49 52 50 61
76 75 76 76 76 76 76 77 77 77 77 77 78 80 81 84 71 42 31 52 60 86 58 60 58 58 60 62 61 50 53 43 33 33 29 42 44 47 50 48 48 56 52 57 62
76 76 77 77 76 77 77 77 77 77 78 78 79 80 80 76 38 9 52 53 72 74 46 48 52 55 59 65 66 60 51 43 30 30 34 40 43 41 48 51 44 59 63 62 62
77 78 79 78 78 77 77 78 78 79 79 79 79 79 79 77 10 15 78 61 80 48 52 53 55 56 57 70 60 61 50 43 35 32 39 42 39 47 45 38 34 47 53 60 62
78 80 80 79 79 79 79 80 83 81 80 79 78 76 72 40 12 32 75 59 63 49 49 52 58 54 57 57 56 64 46 36 34 30 27 38 40 40 44 35 37 47 54 58 58
81 83 84 83 82 81 81 82 83 81 80 79 76 73 63 12 6 13 39 42 52 46 43 44 51 48 44 40 45 33 40 31 19 21 23 30 31 40 37 36 48 52 54 54 56
81 83 83 83 81 81 82 82 82 80 80 80 76 70 65 10 12 27 39 42 48 37 40 34 39 39 31 22 22 17 17 14 13 15 17 20 30 43 36 43 51 52 53 53 54
80 80 81 81 82 82 80 84 84 84 83 80 77 67 27 15 14 17 36 37 48 31 28 29 24 33 18 14 15 15 16 17 13 14 15 19 19 27 36 44 50 51 53 56 55
84 84 83 83 83 81 82 84 81 78 79 77 74 75 18 34 19 10 15 27 48 34 22 20 20 21 17 18 16 15 15 18 16 13 18 22 19 25 35 42 48 51 52 53 56
85 84 84 83 82 82 84 79 77 75 70 64 60 55 23 14 20 16 11 24 30 30 27 21 20 21 19 18 18 16 17 15 16 14 21 21 25 30 38 41 46 50 48 52 52
86 86 85 83 81 83 68 40 31 37 35 52 48 32 27 16 20 17 9 16 17 22 21 21 20 22 18 17 14 13 13 15 15 13 22 21 22 27 40 41 45 49 49 49 49
85 86 86 85 82 84 48 32 37 36 47 29 31 29 30 26 19 18 10 12 16 18 17 26 22 16 15 18 16 14 14 15 15 13 15 16 22 25 39 43 42 48 48 47 45
85 85 86 86 86 59 53 43 40 42 47 27 26 23 20 19 24 17 11 10 14 15 17 17 15 14 19 20 20 17 13 13 14 13 15 19 18 26 35 38 40 43 41 45 44
84 85 85 86 52 60 36 45 47 48 34 23 19 18 17 16 20 14 12 11 13 15 16 14 13 17 18 18 18 17 13 12 14 16 18 17 20 28 26 42 42 41 44 42 44
84 84 85 87 68 57 36 47 46 47 26 19 14 11 16 16 14 17 12 13 14 13 16 17 17 20 22 17 18 16 14 14 13 15 16 16 20 19 33 38 41 39 40 41 40
84 84 87 69 70 55 53 55 46 29 33 21 13 14 18 16 12 17 16 13 13 16 13 12 13 15 18 16 17 15 16 16 17 15 22 18 18 18 20 26 29 35 36 40 40
84 86 76 62 44 43 55 42 30 34 22 28 26 23 23 19 13 18 19 19 18 21 22 16 15 14 13 17 16 16 16 20 22 21 20 15 19 20 16 18 16 26 34 36 38
86 87 69 56 50 50 47 26 40 27 32 27 27 25 24 25 21 21 20 20 16 14 15 19 21 14 13 15 16 18 14 15 24 16 14 20 20 16 13 12 17 17 22 30 35
88 62 49 43 41 46 38 25 34 42 44 41 29 31 29 26 27 24 22 18 18 15 18 18 17 13 12 11 13 17 19 11 13 18 16 13 14 14 14 13 16 19 20 26 30
76 72 46 40 43 46 35 52 49 44 43 36 42 35 38 32 29 26 29 39 27 28 30 19 22 14 12 11 11 14 13 18 16 23 22 16 19 14 20 16 17 19 18 22 24
70 52 34 42 38 41 49 55 50 44 44 40 41 42 37 40 34 31 43 38 34 36 34 26 20 19 15 16 15 15 17 14 13 15 15 14 12 16 19 23 18 15 16 18 22
73 44 40 41 43 51 48 53 55 46 47 47 39 43 46 42 36 40 48 46 32 40 45 39 21 22 19 12 11 12 15 15 17 27 17 14 11 11 14 13 18 15 16 17 20
88 80 45 38 63 63 58 55 47 52 60 60 56 50 46 48 45 46 48 39 36 40 48 38 34 28 23 16 14 15 14 14 13 14 25 17 13 10 13 14 14 16 18 21 24
78 61 48 53 59 66 66 59 56 47 58 76 70 49 52 51 49 50 47 40 34 38 50 42 36 34 23 24 27 27 18 15 14 18 19 17 14 13 13 16 15 17 18 17 24
90 74 70 64 54 61 61 65 64 58 48 56 95 92 76 62 48 49 46 42 34 47 36 38 41 38 33 29 28 29 25 22 22 18 20 16 16 15 16 16 15 14 18 22 22
87 82 82 78 72 69 59 62 64 55 58 52 95 94 93 84 61 60 51 49 49 42 41 36 36 39 34 25 24 29 25 25 22 21 20 18 18 13 15 16 18 16 18 20 20
86 81 97 85 86 87 63 58 58 59 54 58 83 69 64 81 51 44 40 39 40 48 47 44 36 34 32 31 29 30 24 22 21 19 18 21 18 14 15 16 19 18 19 22 21

GFSSW_sfc_rhum_036.txt.gz
RH
76 76 76 77 77 76 77 77 77 77 77 77 78 79 80 83 82 49 20 17 21 73 67 33 38 40 39 41 40 36 32 26 26 27 27 30 34 32 30 36 34 36 36 42 44
76 76 76 77 76 76 77 77 77 77 77 78 79 79 80 82 39 20 25 50 52 82 30 35 41 40 40 36 38 38 30 25 22 21 22 27 29 34 32 34 35 40 34 41 42
76 76 77 77 76 76 77 76 76 77 78 79 79 79 80 68 24 7 47 56 62 72 17 27 27 34 31 31 38 32 28 25 21 21 24 25 29 28 31 33 32 41 44 44 44
76 77 78 77 76 76 75 76 78 78 79 79 79 78 78 41 10 12 75 59 65 26 18 23 28 33 30 37 32 38 29 27 21 22 23 29 25 29 29 26 26 34 39 44 46
76 78 80 81 78 78 80 80 82 80 79 79 77 75 53 24 9 11 71 57 32 22 22 25 32 28 26 28 31 36 27 24 21 21 20 21 26 26 29 26 24 33 39 42 42
77 80 82 82 82 81 80 82 82 81 81 79 75 71 35 19 4 4 18 26 24 23 21 24 27 21 22 26 30 23 26 22 16 15 14 18 21 22 24 26 30 35 39 38 39
80 82 83 83 82 82 82 83 80 82 86 81 75 54 37 14 6 6 17 19 24 22 20 20 21 24 24 26 19 21 19 14 14 12 12 13 16 18 19 27 33 35 37 37 37
83 83 84 84 83 82 82 84 82 85 81 78 77 47 26 10 9 14 16 18 24 20 15 18 20 23 20 14 13 17 12 14 12 11 10 12 17 15 18 27 34 34 37 38 37
84 84 84 84 83 83 84 84 82 78 78 77 56 40 19 24 9 8 18 21 25 21 18 17 20 24 20 18 14 12 15 16 14 10 12 13 16 16 16 25 30 34 35 35 38
84 84 84 83 83 83 86 78 80 73 57 49 38 40 20 12 10 6 11 14 29 22 23 24 20 21 22 21 18 16 14 13 16 12 11 14 16 13 18 24 28 33 34 36 35
83 83 82 81 83 85 54 23 29 41 24 30 27 19 17 12 12 8 6 20 24 21 18 15 17 18 14 14 13 12 12 13 12 11 12 13 14 13 19 23 26 32 34 35 35
83 83 82 82 84 84 32 22 33 34 35 18 18 19 19 21 18 9 8 16 20 23 13 14 16 10 10 10 12 12 12 12 12 10 12 13 14 13 18 24 26 29 30 32 32
83 82 82 83 85 44 28 32 27 28 31 17 15 15 16 15 17 12 10 10 15 16 12 12 10 9 10 11 14 13 13 12 13 12 10 12 14 14 14 20 22 24 26 28 31
83 82 83 90 48 28 22 23 27 29 29 12 16 16 14 14 16 12 7 9 11 14 12 11 8 10 10 12 11 13 10 10 10 12 15 11 17 16 13 17 19 20 26 25 31
83 82 83 90 38 28 27 24 29 32 16 14 13 10 12 14 11 13 10 9 10 10 10 12 10 10 12 10 10 11 7 10 11 11 13 13 15 15 13 15 16 17 21 25 26
84 84 87 41 28 23 24 26 33 28 18 16 10 12 14 14 13 11 14 7 7 9 9 10 7 7 10 9 9 8 10 10 11 10 15 14 14 14 13 17 14 15 18 23 25
84 85 67 34 29 23 23 27 22 19 13 22 20 16 14 12 14 13 16 17 17 18 15 11 10 9 8 11 11 10 12 14 14 13 14 11 13 15 11 11 12 12 15 20 26
86 87 54 28 22 25 26 23 24 16 29 24 23 20 20 14 14 12 16 17 15 13 12 16 15 10 9 11 13 13 11 10 20 11 10 11 15 13 10 10 10 11 10 15 22
86 26 22 20 23 28 24 18 16 38 34 32 23 24 18 18 18 16 14 15 14 12 16 15 14 8 9 9 10 14 14 7 7 9 10 8 10 9 10 10 10 10 10 11 19
43 28 22 19 21 27 19 33 29 29 30 29 33 27 30 25 23 18 14 23 17 12 12 15 17 10 9 9 9 10 10 11 9 19 18 9 12 11 12 12 11 11 10 11 14
34 28 23 20 20 18 22 25 26 24 27 34 33 33 29 30 26 22 24 28 24 18 24 16 15 14 10 12 12 11 12 11 8 9 12 12 8 8 11 12 12 11 11 10 13
34 24 24 23 22 24 28 34 44 26 26 31 31 30 32 32 31 28 32 32 26 26 28 19 16 18 13 9 8 9 11 11 12 20 12 10 8 6 7 8 10 10 10 10 12
39 34 22 23 31 34 35 33 29 31 35 44 48 36 35 34 40 33 35 28 24 27 32 24 20 22 17 12 11 10 10 10 10 10 20 13 9 8 10 11 12 11 11 12 13
40 35 24 26 30 34 39 38 36 27 33 32 85 61 46 31 29 35 32 27 23 24 44 35 22 22 18 18 13 16 12 11 10 13 13 12 11 10 9 11 10 9 10 11 15
38 37 46 42 37 43 45 36 38 40 33 30 80 91 93 52 30 32 32 27 24 31 24 24 30 29 21 22 21 15 12 12 14 14 15 12 12 12 11 11 11 10 11 11 12
48 54 57 47 52 52 48 45 38 39 41 39 74 53 52 97 93 63 42 34 31 29 28 23 33 31 30 21 20 20 18 16 13 12 13 13 13 9 10 12 12 12 14 14 14
51 53 78 59 51 54 51 42 43 42 36 40 43 39 41 50 57 43 32 30 30 34 33 31 26 32 30 21 22 26 20 18 17 15 15 18 16 13 14 14 14 13 12 13 13

GFSSW_sfc_rhum_042.txt.gz
RH
75 75 76 75 75 74 74 75 76 76 76 77 78 80 82 84 84 46 25 16 21 62 56 22 18 28 31 33 28 28 70 58 35 33 41 18 23 24 23 31 29 35 51 52 48
75 74 74 75 74 75 75 76 76 76 77 78 78 79 80 83 53 27 25 48 60 60 12 18 20 28 33 31 29 35 92 74 38 35 35 22 18 22 25 26 38 43 52 49 48
73 73 74 74 74 74 76 76 76 77 78 78 78 79 80 70 37 12 57 40 57 48 10 14 16 24 32 26 26 27 50 63 48 35 21 24 18 18 23 28 39 50 52 50 48
74 75 76 76 75 75 76 76 76 78 79 78 78 78 78 48 21 14 59 62 58 13 12 14 16 22 29 28 22 26 40 33 33 26 30 47 35 30 20 25 32 40 42 46 50
76 80 81 81 79 79 80 81 80 80 80 79 77 78 63 35 17 10 65 55 19 10 14 13 18 20 28 24 21 21 37 33 41 29 36 56 32 37 24 22 28 35 39 42 44
81 83 82 82 82 81 81 82 83 80 83 84 80 76 49 34 11 8 12 24 12 10 13 10 15 16 21 22 20 19 18 19 27 15 26 28 33 26 27 19 27 34 37 36 36
83 83 82 82 82 82 81 82 80 80 86 84 84 58 32 24 8 5 8 16 12 11 10 9 9 15 17 21 17 16 21 18 24 14 14 13 31 28 51 20 26 31 35 32 30
84 83 82 82 82 82 82 83 80 77 83 78 80 50 33 13 15 11 4 7 10 9 9 9 7 11 15 16 16 18 20 26 18 16 14 12 20 26 28 23 28 29 32 33 31
84 84 83 82 82 82 83 83 78 77 76 74 62 40 29 23 16 11 7 5 12 10 11 9 8 12 13 21 23 19 24 25 20 15 15 13 16 13 20 20 28 29 30 31 33
84 84 84 82 82 83 83 78 62 77 67 45 39 40 28 16 12 11 9 6 11 12 15 13 12 14 15 21 30 24 22 20 22 14 13 14 14 14 13 23 26 28 29 30 31
84 83 82 82 82 84 60 13 13 34 17 27 27 23 15 12 8 9 8 8 10 14 20 17 18 19 17 18 19 18 16 16 15 14 14 14 14 15 15 18 26 30 30 30 30
84 84 83 82 83 80 52 13 13 14 21 14 13 13 14 14 14 9 7 9 14 18 18 19 21 16 14 16 18 18 16 12 13 12 15 13 14 12 16 16 24 28 28 29 28
84 83 81 83 81 46 11 11 9 10 19 14 10 10 9 10 15 12 7 10 15 19 20 21 17 14 14 16 16 19 18 14 13 14 16 14 17 14 13 15 18 22 22 26 28
83 82 81 86 41 19 11 9 8 10 21 12 8 7 7 6 13 12 6 12 13 17 19 18 14 14 16 16 14 19 16 14 13 13 18 12 19 18 12 15 19 19 23 24 26
82 81 82 87 39 21 10 8 8 12 28 8 8 8 6 7 8 14 9 11 14 16 18 20 16 14 17 15 12 12 10 14 13 13 14 13 16 15 13 14 18 18 22 20 24
81 81 84 31 21 14 8 8 11 21 22 16 14 16 14 7 7 8 14 9 10 12 16 17 11 10 8 10 8 7 10 10 11 12 17 14 14 16 13 15 12 15 18 19 20
82 81 73 34 21 8 9 12 16 20 10 16 18 16 16 17 11 8 14 16 12 16 23 18 16 9 7 8 8 7 8 13 15 15 18 12 13 16 11 12 11 15 14 18 19
81 81 44 21 11 9 11 16 24 12 14 14 15 14 17 15 15 11 12 17 11 10 14 16 18 13 7 7 9 8 8 11 23 16 13 12 15 14 10 9 8 11 12 13 16
78 27 20 13 10 11 16 22 14 14 11 13 12 15 18 17 24 25 15 14 13 10 18 14 15 10 8 6 7 9 10 6 9 8 10 9 10 8 9 10 9 8 10 12 14
50 32 26 12 10 14 19 26 13 12 12 11 15 14 19 20 26 35 30 12 12 9 9 13 16 10 9 7 7 8 7 9 9 19 19 10 14 12 13 12 11 11 9 12 14
36 23 14 12 12 17 21 15 16 12 11 13 16 18 19 29 42 38 34 36 22 13 11 11 14 12 10 11 10 8 9 9 8 9 14 15 10 9 14 13 12 10 10 10 13
37 32 14 12 20 16 16 18 30 15 12 14 16 17 38 43 49 62 60 48 35 20 21 14 12 17 14 8 7 8 9 10 14 21 11 13 9 6 8 10 10 10 11 10 13
41 29 15 16 26 24 20 18 16 19 22 28 21 18 22 34 50 66 70 55 41 27 30 27 21 21 18 13 9 10 9 9 9 10 20 14 10 8 9 11 11 11 11 14 15
44 44 34 33 30 32 30 26 22 15 28 43 41 23 28 37 35 69 70 48 43 30 50 33 28 27 20 20 12 14 10 9 9 13 14 11 12 11 10 9 12 13 14 13 18
39 44 47 58 44 46 40 29 29 33 35 40 29 60 48 42 46 59 57 45 44 42 26 23 34 25 18 13 12 10 10 10 11 12 15 11 11 14 14 13 12 12 14 15 19
72 90 84 70 49 47 49 56 37 27 25 26 32 56 55 45 39 43 40 51 69 35 30 24 34 29 27 18 16 16 10 10 10 9 10 10 9 10 12 14 14 16 17 19 19
83 77 96 95 56 61 52 47 40 33 31 25 34 28 28 25 24 22 22 28 46 39 31 32 33 35 36 24 21 22 15 11 10 9 9 12 12 12 14 14 15 15 15 15 13

GFSSW_sfc_rhum_045.txt.gz
RH
73 72 73 73 73 73 74 75 76 76 76 78 79 80 82 86 85 60 56 24 31 48 66 30 23 25 42 56 49 46 93 88 72 44 42 47 38 35 34 46 48 45 60 59 47
73 72 73 74 74 74 74 75 75 76 76 79 79 80 81 84 78 56 39 47 48 53 26 16 26 21 38 53 49 51 87 73 49 45 42 32 35 40 46 59 63 62 57 50 50
73 73 75 75 74 74 75 75 75 76 78 79 79 79 80 79 62 27 48 51 48 57 20 12 16 20 39 43 42 39 70 54 50 44 34 36 36 29 50 70 65 71 61 53 56
74 77 80 77 76 75 76 77 78 78 79 79 80 79 79 69 31 14 60 60 50 32 15 13 15 24 36 46 36 43 37 38 33 35 41 35 43 34 45 57 56 57 57 52 56
79 83 84 82 81 81 82 82 82 80 80 80 83 76 82 61 40 16 59 68 35 24 15 13 17 23 30 36 32 32 34 33 29 34 46 33 32 39 44 50 54 52 54 55 57
84 84 84 83 82 82 82 83 83 80 79 83 84 77 80 56 19 16 24 36 28 18 14 13 18 19 23 26 32 27 28 32 36 39 35 32 32 32 44 44 54 55 57 55 56
85 84 84 83 82 81 82 82 80 78 78 84 80 71 58 35 15 15 21 27 18 15 13 12 14 16 21 26 24 25 27 33 39 38 39 36 37 31 42 44 50 54 55 53 53
84 83 82 82 81 81 82 82 80 76 77 81 75 74 75 23 24 21 17 22 14 13 11 12 13 13 14 20 22 27 26 29 27 27 31 35 48 36 33 46 52 50 52 52 51
84 83 82 82 82 81 83 81 75 69 76 74 83 78 54 27 25 20 18 16 16 14 13 9 11 15 12 22 29 29 36 31 28 21 26 32 38 39 33 39 47 48 46 46 49
84 83 82 82 82 81 82 75 64 77 76 54 49 74 41 21 17 17 15 11 11 15 14 14 17 18 15 22 35 36 36 27 30 24 23 24 24 41 38 34 41 43 42 40 49
84 84 82 80 81 81 76 51 18 36 30 18 18 29 17 19 14 17 13 14 9 17 22 20 25 25 17 18 19 26 29 27 22 20 22 23 20 37 36 39 60 67 40 40 38
83 82 80 81 83 71 66 18 14 14 17 12 12 14 12 13 19 17 14 17 14 20 20 26 29 19 16 16 17 23 29 26 20 17 19 20 20 20 32 51 58 57 73 40 38
81 81 81 82 77 50 28 14 10 10 18 16 12 12 13 12 15 17 15 15 14 17 20 26 25 19 18 17 18 22 27 27 25 15 13 19 22 19 29 45 50 66 68 36 37
81 80 80 86 48 33 24 15 9 10 32 19 13 11 11 11 12 11 13 13 15 16 18 22 20 21 22 19 18 26 20 21 22 20 34 22 38 28 21 38 51 61 55 39 35
80 80 81 85 59 41 25 13 10 14 41 14 13 10 10 12 8 10 12 14 15 14 18 22 23 23 23 20 17 22 18 20 21 24 24 24 30 25 21 23 42 53 55 44 34
80 80 81 54 44 31 17 11 14 33 33 11 11 12 12 12 13 13 9 13 10 13 17 18 18 19 19 16 16 16 18 17 21 24 30 23 26 25 23 23 39 43 42 40 34
80 80 82 48 41 19 19 16 32 30 11 13 14 11 11 12 15 19 24 18 21 21 27 19 18 18 16 19 16 17 22 26 26 27 31 22 24 23 17 17 19 27 36 35 34
78 82 62 36 32 24 16 26 43 17 14 12 14 12 13 15 17 19 26 34 17 18 27 28 28 20 17 17 19 20 19 21 32 30 26 20 22 18 14 14 12 18 27 33 37
79 43 35 27 27 19 28 39 29 20 15 16 14 15 14 16 19 26 33 40 31 20 23 22 23 18 17 12 11 16 17 12 18 24 24 22 17 13 11 12 12 13 22 29 36
67 46 38 20 17 23 34 42 25 15 14 14 19 18 23 23 36 36 39 36 44 54 49 18 20 18 16 16 11 11 11 15 13 24 24 17 18 16 13 11 13 14 16 21 24
49 46 23 16 17 27 34 27 24 16 16 20 20 20 20 24 35 42 42 40 48 58 49 43 22 15 14 19 20 11 14 11 15 19 28 31 20 12 12 12 11 15 16 16 22
51 51 26 24 35 30 37 29 33 18 16 24 29 26 29 28 27 34 42 43 46 61 61 44 42 21 17 14 12 13 12 13 15 22 18 21 15 16 15 11 11 11 13 17 20
60 48 28 30 52 50 44 40 24 20 22 33 36 34 32 37 58 72 65 46 51 66 51 53 52 42 22 17 14 14 10 10 16 22 24 18 16 12 16 13 11 16 12 20 20
60 53 45 41 39 48 52 48 44 36 38 32 35 30 37 43 58 81 60 58 51 52 60 62 51 46 37 22 20 19 12 10 12 17 18 17 19 16 18 18 20 20 21 21 27
54 55 62 65 69 65 52 48 64 64 37 28 45 36 52 54 50 60 53 51 41 55 60 57 49 39 34 25 22 19 13 11 12 13 19 16 22 19 25 24 25 23 23 24 27
63 92 84 88 68 62 54 56 54 46 53 50 38 37 47 64 55 63 40 49 58 61 70 55 52 45 47 28 23 22 16 11 11 11 12 16 14 20 21 26 24 26 24 30 31
76 71 94 94 80 71 64 67 71 59 52 48 47 38 46 33 31 31 28 30 34 62 67 51 40 54 56 35 29 38 23 13 12 12 11 15 17 21 24 25 22 22 23 21 19

GFSSW_sfc_rhum_048.txt.gz
RH
73 72 73 75 75 74 74 75 75 76 76 78 78 80 80 83 85 69 71 38 38 49 72 66 53 40 57 66 68 68 88 86 82 78 75 57 57 53 44 57 51 52 62 68 60
73 74 75 76 75 74 75 75 76 77 78 78 79 80 80 82 84 74 43 48 55 51 48 46 43 32 59 66 66 76 98 76 51 44 45 54 53 49 55 60 67 67 62 58 56
75 76 77 77 75 75 76 76 77 78 79 79 79 80 80 80 79 46 49 56 59 59 26 21 28 26 34 44 63 68 82 56 44 41 40 50 45 49 64 76 70 77 65 52 51
77 78 80 79 76 76 77 78 79 79 79 80 79 80 79 81 34 16 60 65 60 40 24 21 18 31 36 48 47 62 49 43 39 34 38 42 38 53 56 64 59 62 54 47 49
80 84 84 83 81 80 80 81 81 80 80 78 78 78 90 80 46 22 53 68 43 36 25 21 19 22 34 38 42 50 45 37 36 38 38 34 37 50 55 57 57 55 53 53 60
84 84 83 82 81 81 81 82 82 80 77 77 80 74 91 63 22 23 32 54 32 29 21 17 18 17 28 27 41 38 40 34 33 37 40 42 36 48 62 58 59 58 63 62 61
83 83 82 82 82 81 81 81 78 79 78 75 80 70 84 47 18 20 27 46 35 25 22 16 14 18 22 31 23 26 34 32 37 36 37 36 42 66 63 60 63 61 61 60 59
84 83 83 82 81 82 82 81 78 78 74 75 81 71 87 42 37 35 28 26 29 24 15 16 13 20 21 17 16 30 35 40 36 41 35 36 51 60 62 63 68 62 59 61 60
83 83 83 81 80 81 84 81 76 69 76 75 86 83 89 41 42 31 24 25 22 21 17 10 16 22 22 21 25 35 41 36 35 36 36 45 49 56 61 65 68 64 62 60 60
83 82 82 80 81 80 80 79 72 80 75 65 62 91 48 24 18 15 25 20 21 20 20 17 20 25 24 28 31 38 46 39 34 38 32 44 42 51 56 63 67 65 62 61 59
82 82 82 81 81 81 85 41 17 21 41 22 16 51 23 13 10 17 18 21 21 23 28 23 24 27 21 22 20 28 33 35 30 26 38 34 40 43 55 58 66 67 63 61 59
81 81 80 81 83 82 74 32 22 16 21 13 13 13 12 12 15 13 17 23 23 27 25 33 27 19 22 19 18 20 25 31 29 24 27 31 40 39 50 56 57 62 59 58 55
81 79 80 82 86 55 43 33 22 22 25 18 15 15 14 15 16 14 17 22 25 25 26 28 28 20 22 22 20 21 24 24 34 28 20 28 34 45 40 47 50 50 48 46 45
80 78 80 83 46 58 41 27 29 19 38 25 16 14 9 15 16 10 10 19 22 20 19 26 21 22 24 23 20 26 18 18 23 33 40 25 40 36 42 50 48 49 51 46 40
80 77 77 86 89 61 30 37 24 24 26 14 12 9 8 12 12 16 13 18 23 22 18 21 22 24 26 24 20 22 18 20 22 34 41 29 38 30 42 60 54 49 48 44 43
79 77 80 71 85 59 42 30 24 33 39 15 13 12 11 12 13 15 17 18 18 22 21 18 16 19 22 21 20 18 22 26 30 34 39 32 30 34 48 57 56 45 50 47 44
78 79 85 63 37 36 40 27 36 36 16 18 18 14 13 19 17 22 24 30 50 62 29 20 18 17 20 25 23 23 33 41 47 41 41 33 35 27 38 46 49 46 54 47 39
79 82 79 58 62 49 36 35 53 24 24 18 17 15 20 32 27 28 31 35 47 65 81 24 25 18 17 26 27 26 28 48 53 43 33 28 35 24 18 21 39 40 44 44 40
82 66 59 43 41 45 36 54 45 34 20 21 18 21 24 19 31 35 37 40 40 58 86 91 25 20 18 17 22 28 29 23 30 42 31 29 23 17 15 17 36 43 42 46 41
83 82 58 29 28 32 40 54 41 25 20 21 37 24 29 27 36 36 36 30 34 43 57 73 82 23 18 18 19 20 20 28 29 35 34 26 22 22 16 14 17 38 44 42 36
89 73 47 26 33 41 57 51 33 21 20 34 41 38 40 47 42 34 34 28 39 50 54 67 75 43 20 19 24 27 20 29 24 25 24 30 19 17 16 17 15 24 37 37 34
97 81 43 32 53 64 72 53 51 42 35 36 36 37 45 44 55 47 49 54 41 60 70 67 81 87 36 16 15 21 18 18 19 25 27 29 18 11 13 13 13 11 31 32 32
99 86 48 43 84 81 62 52 41 49 43 38 40 38 42 52 65 68 53 40 45 64 84 89 90 95 46 28 19 20 22 16 19 20 25 18 16 12 14 18 20 13 15 28 32
99 88 72 68 73 88 85 69 56 44 49 46 45 41 53 60 69 73 65 60 56 53 61 90 94 96 93 52 40 27 17 18 13 19 19 18 16 13 11 15 20 18 19 20 28
92 90 91 90 82 87 78 64 60 59 46 45 57 58 64 77 65 66 62 47 43 60 75 92 99 74 59 46 39 37 23 18 16 15 16 14 19 16 16 18 26 26 24 25 29
94 95 96 97 89 79 75 72 83 67 66 69 72 61 69 71 67 67 56 51 60 70 92 91 93 74 59 40 38 36 26 24 15 12 18 16 19 16 20 28 34 37 30 29 30
96 92 95 92 87 97 85 85 80 70 63 55 64 76 72 57 43 41 41 39 62 73 85 97 80 82 72 45 35 42 35 30 19 14 15 18 17 27 33 48 53 27 26 36 36